Voltar ao catálogo

OV5-9

LostMilitarHEO
NORAD 3952·PAYLOAD·🇺🇸 United States

Lançado May 23, 1969 de Cape Canaveral Space Force Station

Loading…

Próximas Passagens (próximas 24 horas)

TLE

ObsoletoSource: Space-Track

Época: Apr 30, 1971, 03:31 UTC

1 03952U 69046C   71120.14659721 -.00000433  00000-0  10000-3 0  9995
2 03952  32.9340 146.7171 6905699 208.5650 226.4278  0.46228367  3326

Acompanhe OV5-9 em tempo real com AllMySat

Download on the App Store